Location: Chassagnes
(44.4047°N, 4.1657°E)
Time: 11:43:04
(UTC+00:00)

Cosmos 1825 - Pass Details

Date: 27 October 2020
Orbit: 502 x 508 km, 82.5° (Epoch: 23 November)

Event Time Altitude Azimuth Distance (km) Brightness Sun altitude
Rises 17:47:05 0° 6° (N) 2,623 5.7 -12.7°
Reaches altitude 10° 17:49:43 10° 25° (NNE) 1,731 4.6 -13.1°
Enters shadow 17:51:22 17° 48° (NE) 1,347 3.8 -13.4°
